STARLINK-3908, 52491

Orbit data source: Space-Track

STARLINK-3908, 52491 is a payload satellite owned by SpaceX/Seattle (US) in LEO that was launched on Fri, 06 May 2022 UTC via an FALCON 9 launch vehicle from the Air Force Eastern Test Range (AFETR). Payload-class satellites include a variety of spacecraft equipped with specific instruments for various scientific and technological missions. These include communications satellites like Starlink; space stations such as the ISS; scientific satellites like the Hubble; Earth observation satellites from companies like Planet Labs, Umbra, and HawkEye 360; GPS; miniature CubeSats for education and research; and military/defense satellites.

Loading next visibility...
Identifier
52491, 2022-049AS
Orbit
LEO
Country
Flag of USUS
Related business
Manufacturer
SpaceX/Seattle
Mission
Operational Commercial Communications
Bus & Motor
STARLINK, Unknown motor
Mass
297 kg wet, ~220 kg dry
Launch date (UTC)
2022-05-06 (4 years ago)
Launch vehicle
FALCON 9
Launch site
Air Force Eastern Test Range (AFETR)
Object type
Payload
Rocket body
Debris
Shape & HBR
Box + 1 Pan, 10.1 m
Radar Cross Section
13.562 m², Large (>1 m²)

Expand to show TLE details & history
Last TLE update: 2 days ago

TLE from 2 days ago
0 STARLINK-3908
1 52491U 22049AS  26171.37483931  .00000022  00000-0  19464-4 0  9995
2 52491  53.1592 308.0329 0001064  78.9870 281.1241 15.08833021227891
Epoch: 2026-06-20T08:59Z
TLE epoch observation values (Epoch: 2026-06-20T08:59:46.116Z)
Latitude
-0.00002°
Longitude
-95.49964°
Altitude
540.514 km
Speed
7.593 km/s
True Right ascension
20h 32m 07s
True Declination
0° 00' 00"
Sunlit
Object was in full shadow at epoch
Visualization orbit readout
Latitude
Unknown
Longitude
Unknown
Altitude
Unknown
Speed
Unknown
Apparent Right ascension
Unknown
Apparent Declination
Unknown
Sunlit
N/A
Visualization observer readout
Local Sidereal Time
21:42:02
Azimuth
Unknown
Elevation
Unknown
Doppler factor
Unknown
Orbital elements
Apogee altitude
540.755 km
Perigee altitude
539.283 km
Semi-major axis
6,918.156 km
Eccentricity
0.00011
Inclination
53.1592°
RAAN
308.0329°
Arg. of periapsis
78.987°
True anomaly
281.11214°
Mean anomaly
281.1241°
Eccentric anomaly
281.11812°
Mean motion
3.77188 °/min
Orbital period
95.44 mins
BSTAR
0.000019464
Loading maneuver chart data...
Computing Atmospheric mass density...
Loading historical data...
Loading historical data...
Loading historical data...
Loading historical data...
Loading historical data...
Loading historical data...
Loading historical data...

Documentation

Showing up to 5 results
|